Weather in Zabaykalsk

Russia / Zabaykalsky Krai     49°39′02″N   117°19′44″E
temp.,
°C
wind,
m/s
gust,
m/s
humid.,
%
clouds,
%
prec.,
mm/h
press.,
hPa
HPBL,
m
9 august, tue
tue900:00+12wnw513620 0.0 1006256
03:00+10w412723 0.0 1005204
06:00+9wnw411795 0.0 1006175
09:00+16wnw711544 0.0 1004766
12:00+20nw1013380 0.0 10031859
15:00+23nw1114305 0.0 10012479
18:00+22nw1014325 0.0 10002753
21:00+16nnw410475 0.0 1002202
10 august, wed
wed1000:00+12wnw37580 0.0 1003104
03:00+10wnw33650 0.0 100326
06:00+8nw34745 0.0 100460
09:00+15nw69530 0.0 1004819
12:00+19nw894251 0.0 10031867
15:00+19nnw8104360 0.0 10031793
18:00+18n6845100 0.0 10031765
21:00+15nnw3559100 0.0 100597
11 august, thu
thu1100:00+11nnw227596 0.0 100611
03:00+12nnw227511 0.0 100615
06:00+10nnw228199 0.0 100812
09:00+15nnw345917 0.0 1008353
12:00+20nnw464226 0.0 10071786
15:00+21n4638100 0.0 10061995
18:00+21ne344050 0.0 10061043
21:00+16e1155100 0.0 100712
12 august, fri
fri1200:00+16sse225599 0.0 100714
03:00+13ssw226290 0.0 100722
06:00+14ssw2258100 0.0 100621
09:00+17ssw355059 0.0 1006299
12:00+24sw45355 0.0 10042131
15:00+23wnw993447 0.1 10022199
18:00+23nw811375 0.0 10022056
21:00+16nw475826 0.0 100498
13 august, sat
sat1300:00+12nw22845 0.0 100514
03:00+11nw33880 0.0 100628
06:00+10nw22890 0.0 100814
09:00+16n346045 0.0 1008439
12:00+21nne334273 0.0 10071468
15:00+23n2235100 0.0 10052152
18:00+23nne2333100 0.0 10052151
21:00+16se225894 0.0 100512